Location: Brienzwiler
(46.7508°N, 8.1014°E)
Time: 01:40:19
(UTC+00:00)

ATLAS 2AS CENTAUR R/B - Pass Details

Date: 05 July 2020
Orbit: 930 x 1282 km, 63.7° (Epoch: 19 July)

Event Time Altitude Azimuth Distance (km) Brightness Sun altitude
Rises 20:40:47 0° 317° (NW) 4,220 8.1 -10.5°
Reaches altitude 10° 20:43:57 10° 326° (NW) 3,218 6.8 -10.8°
Maximum altitude 20:51:02 37° 31° (NNE) 1,759 4.0 -11.6°
Drops below altitude 10° 20:57:38 10° 98° (E) 2,992 4.6 -12.3°
Enters shadow 20:58:54 - 102° (ESE) 3,388 4.9 -12.4°
